Web Car-Videos.com

 

Car-videos.com

Videos
Performance Statistics
Unit Converter
Horsepower & Torque
Speed/RPM Calculator
Tires
FAQ
Contact Us
Updates and News Feed
Advertise with Us!  new!
Link to Us


Add to My AOL

Subscribe in NewsGator Online








Performance Home  |  List of all Cars  |  Custom Statistics  |  Tracks

Circuit de La Sarthe (LeMans)
LeMans, France
8.47 Miles

The first lap time is from a dead stop and the 2nd is taken when the car passes the starting line at the end of the 1st lap.

Car First Lap Second Lap
1.1994 McLaren F1 (6M)4:22.34:17.5
2.1998 Mercedes-Benz CLK-GTR (6M)4:22.94:17.8
3.1996 Ferrari F50 (6M)4:32.34:25.8
4.1991 Ferrari F40 (5M)4:32.94:27.1
5.1995 Lamborghini Diablo SE 5.7 (5M)4:35.74:28.7
6.1998 Dodge Viper GTS-R (6M)4:42.14:35.5
7.2002 Chevrolet Corvette Z06 (6M)4:42.84:36.0
8.1997 Ferrari F355 Spider (6M)4:48.64:41.6
9.2003 Ford Mustang SVT Cobra (6M)4:52.54:45.6
10.1999 Chevrolet Corvette LS1 Hardtop (6M)4:54.74:47.0
11.2000 BMW Z8 (6M)4:57.74:51.7
12.1993 Mazda RX-7 Twin Turbo (5M)4:57.94:50.9
13.2003 Mercedes-Benz SL 55 AMG (5A)4:58.74:51.7
14.1994 Toyota Supra Turbo (6M)5:00.24:53.4
15.2001 BMW M3 (6M)5:00.54:53.8
16.2004 Mercedes-Benz E 55 AMG (5A)5:03.94:57.8
17.2001 Porsche Boxster S (6M)5:04.64:57.9
18.1998 Subaru Impreza WRX 22B STi (5M)5:06.04:59.6
19.2004 Subaru Impreza WRX STi (USA) (6M)5:08.85:02.4
20.1993 Nissan 300ZX Turbo (5M)5:09.35:01.8
21.2003 Infiniti G35 Coupe (6M)5:12.15:03.5
22.2003 Ford Mustang Mach 1 (5M)5:12.75:05.0
23.1994 BMW 850 CSi (6M)5:12.85:05.0
24.2003 BMW Z4 3.0i (6M)5:12.95:05.7
25.2003 Porsche Boxster S (6M)5:14.35:06.6
26.1987 Buick Regal Grand National GNX (4A)5:15.05:07.3
27.2003 Dodge Neon SRT-4 (5M)5:15.85:08.7
28.2004 Mazda RX-8 (6M)5:16.05:08.6
29.2002 Acura RSX Type-R (Jap) (6M)5:17.45:09.0
30.2002 Subaru Impreza WRX Sedan AccessECU1 (5M)5:19.45:12.0
31.2001 BMW 540 i (5A)5:19.65:11.4
32.1967 Maserati Ghibli (5M)5:20.75:13.0
33.2003 Porsche Boxster (5M)5:21.45:13.5
34.2002 BMW 745i (6A)5:21.55:14.0
35.2000 Porsche Boxster (5M)5:22.65:14.3
36.1990 Mazda RX-7 Turbo (5M)5:23.85:16.7
37.1989 Chevrolet Camaro IROC-Z 350 (4A)5:25.45:18.5
38.1989 Toyota Supra Turbo (5M)5:26.15:17.3
39.2001 Lexus IS 300 (5A)5:26.65:18.5
40.1999 BMW 328 i (5M)5:27.05:18.7
41.2003 Infiniti G35 Sedan (5A)5:28.45:20.9
42.2003 Mazda Protégé MazdaSpeed (5M)5:29.05:19.6
43.1998 Ford Contour SVT (5M)5:29.05:20.4
44.2002 Ford Focus SVT (6M)5:29.25:20.3
45.2001 BMW 330 i (5M)5:30.85:22.8
46.2002 Nissan Sentra SE-R Spec V (6M)5:32.15:23.9
47.2002 Audi A4 3.0 Quattro (6M)5:32.25:24.1
48.1995 Mitsubishi Eclipse GSX (5M)5:32.25:24.8
49.1969 Dodge Super Bee 383 (4M)5:34.65:26.5
50.1997 Volvo 850 T5 (4A)5:35.75:26.8
51.2000 Subaru Impreza 2.5 RS Sedan (5M)5:36.35:28.3
52.1999 Bentley Arnage (5A)5:36.85:29.2
53.1999 Volvo V70 R AWD (4A)5:37.05:29.3
54.1998 Mercedes-Benz E 320 (5A)5:37.05:28.6
55.2001 Dodge Neon R/T (5M)5:38.65:29.7
56.1995 Nissan 240SX SE (5M)5:40.05:30.6
57.2002 Subaru Impreza 2.5 RS (5M)5:40.55:32.1
58.2000 Honda Civic SI (5M)5:40.95:32.3
59.2003 Dodge Stratus R/T 2.7 Sedan (5M)5:41.95:33.0
60.1991 Nissan 240SX SE (5M)5:42.65:33.5
61.1984 Toyota Supra (5M)5:43.15:34.4
62.2002 Mazda Protégé MP3 (5M)5:43.15:33.7
63.1986 Mazda RX-7 GXL (5M)5:43.85:35.1
64.1993 Toyota Camry SE V6 (4A)5:44.25:35.3
65.1991 Nissan Sentra SE-R (5M)5:45.15:36.1
66.2003 Mazda Protege5 (5M)5:45.75:35.7
67.1997 Saturn SC2 (5M)5:46.55:37.6
68.2001 Ford Focus ZX3 (5M)5:48.55:39.5
69.1999 Rolls-Royce Silver Seraph (5A)5:48.85:39.8
70.1997 Cadillac Catera (4A)5:50.45:40.5
71.2001 Chrysler PT Cruiser (5M)5:53.75:43.7
72.1999 Lexus RX300 (4A)5:54.05:44.8
73.1989 Mazda 323 GTX (5M)5:55.25:47.4
74.2003 Subaru Legacy L Special Edition (5M)5:55.25:45.7
75.1998 Ford Crown Victoria Police Edition (4A)5:55.95:45.8
76.2003 Honda Pilot EX (5A)5:56.05:47.6
77.2003 Toyota Camry SE 2.4 (5M)5:56.45:46.8
78.1997 Mitsubishi Galant ES (4A)6:04.05:54.5
79.2002 Jeep Liberty Limited 4x4 (4A)6:07.95:59.0
80.2001 Subaru Forester L (4A)6:10.76:01.0
81.2002 Chevrolet Avalanche Z71 (4A)6:10.96:01.6
82.1989 Daihatsu Charade CLS (5M)6:20.06:09.8
83.1986 Honda Civic CRX HF (5M)6:21.86:10.1
84.1983 Chevrolet Cavalier CS (5M)6:31.66:19.5